Tracking 19559 objects as of 26-Mar-2019
HD Live streaming from Space Station
objects crossing your sky now

COSMOS 1823 DEB

Track COSMOS 1823 DEB now!
10-day predictions


NORAD ID: 39833
Int'l Code: 1987-020FH
Perigee: 1,418.7 km
Apogee: 1,462.5 km
Inclination: 73.8 °
Period: 114.5 minutes
Semi major axis: 7811 km
RCS: 0.0132 m2 (small)
Launch date: February 20, 1987
Source: Commonwealth of Independent States (former USSR) (CIS)
Launch site: PLESETSK MISSILE AND SPACE COMPLEX (PKMTR)

Note: This is SATELLITE DEBRIS
aabbcc
Your satellite tracking list
Your tracking list is empty




NASA's NSSDC Master Catalog

Two Line Element Set (TLE):
1 39833U 87020FH  19082.77590599  .00000138  00000-0  92439-3 0  9996
2 39833  73.7717 119.5077 0028042 287.7821  72.0173 12.57465032726067
Source of the keplerian elements: AFSPC